Location: *
(42.5628°N, 2.3633°E)
Time: 20:42:46
(UTC+00:00)

Cosmos 2228 - Pass Details

Date: 30 March 2020
Orbit: 588 x 619 km, 82.5° (Epoch: 30 May)

Event Time Altitude Azimuth Distance (km) Brightness Sun altitude
Exits shadow 20:22:39 37° 37° (NE) 939 3.9 -23.1°
Drops below altitude 10° 20:25:28 10° 17° (NNE) 1,952 5.8 -23.5°
Sets 20:27:43 0° 13° (NNE) 2,866 6.7 -23.9°
